"datetime","# probes","# resolvers","can_ipv6","can_ipv6_prbs","can_tcp","can_tcp_prbs","can_tcp6","can_tcp6_prbs","does_ecs","does_ecs_prbs","does_flagday","does_flagday_prbs","does_rov4","does_rov4_prbs","does_rov6","does_rov6_prbs","does_qnamemin","doesnt_qnamemin","does_qnamemin_prbs","doesnt_qnamemin_prbs","does_nxdomain","doesnt_nxdomain","does_nxdomain_prbs","doesnt_nxdomain_prbs","has_ta_19036","hasnt_ta_19036","has_ta_19036_prbs","hasnt_ta_19036_prbs","has_ta_20326","hasnt_ta_20326","has_ta_20326_prbs","hasnt_ta_20326_prbs","can_rsamd5","cannot_rsamd5","broken_rsamd5","can_rsamd5_prbs","cannot_rsamd5_prbs","broken_rsamd5_prbs","can_dsa","cannot_dsa","broken_dsa","can_dsa_prbs","cannot_dsa_prbs","broken_dsa_prbs","can_rsasha1","cannot_rsasha1","broken_rsasha1","can_rsasha1_prbs","cannot_rsasha1_prbs","broken_rsasha1_prbs","can_dsansec3","cannot_dsansec3","broken_dsansec3","can_dsansec3_prbs","cannot_dsansec3_prbs","broken_dsansec3_prbs","can_rsansec3","cannot_rsansec3","broken_rsansec3","can_rsansec3_prbs","cannot_rsansec3_prbs","broken_rsansec3_prbs","can_rsasha256","cannot_rsasha256","broken_rsasha256","can_rsasha256_prbs","cannot_rsasha256_prbs","broken_rsasha256_prbs","can_rsasha512","cannot_rsasha512","broken_rsasha512","can_rsasha512_prbs","cannot_rsasha512_prbs","broken_rsasha512_prbs","can_eccgost","cannot_eccgost","broken_eccgost","can_eccgost_prbs","cannot_eccgost_prbs","broken_eccgost_prbs","can_ecdsa256","cannot_ecdsa256","broken_ecdsa256","can_ecdsa256_prbs","cannot_ecdsa256_prbs","broken_ecdsa256_prbs","can_ecdsa384","cannot_ecdsa384","broken_ecdsa384","can_ecdsa384_prbs","cannot_ecdsa384_prbs","broken_ecdsa384_prbs","can_ed25519","cannot_ed25519","broken_ed25519","can_ed25519_prbs","cannot_ed25519_prbs","broken_ed25519_prbs","can_ed448","cannot_ed448","broken_ed448","can_ed448_prbs","cannot_ed448_prbs","broken_ed448_prbs","can_gost","cannot_gost","broken_gost","can_gost_prbs","cannot_gost_prbs","broken_gost_prbs","can_sha384","cannot_sha384","broken_sha384","can_sha384_prbs","cannot_sha384_prbs","broken_sha384_prbs","is_internal","is_forwarding","is_external","is_internal_prbs","is_forwarding_prbs","is_external_prbs"
2017-06-20T23:59:53Z,59,85,65,49,83,58,62,46,6,14,0,0,0,0,0,0,0,85,0,59,0,83,0,58,0,0,0,0,0,0,0,0,44,35,6,32,30,11,84,1,0,58,17,0,84,1,0,59,9,0,85,0,0,59,16,0,85,0,0,59,9,0,85,0,0,59,8,0,85,0,0,59,9,0,42,40,3,29,39,2,78,5,2,55,13,1,78,5,2,55,14,1,0,82,3,0,57,2,0,80,5,0,56,3,44,37,4,32,34,3,80,5,0,56,13,0,60,15,10,45,11,13
2017-06-21T23:59:53Z,62,90,69,52,88,61,66,49,7,14,0,0,0,0,0,0,0,90,0,62,0,88,0,61,0,0,0,0,0,0,0,0,45,39,6,33,32,11,87,3,0,59,19,1,89,1,0,61,9,0,90,0,0,62,16,1,90,0,0,62,8,0,90,0,0,62,9,0,90,0,0,62,8,0,43,44,3,30,41,2,82,6,2,57,14,1,82,6,2,57,14,1,0,87,3,0,60,2,0,87,3,0,60,3,45,41,4,33,36,3,85,5,0,59,14,0,64,16,10,47,12,14
2017-06-22T23:59:54Z,62,89,70,53,87,61,66,49,9,14,0,0,0,0,0,0,0,89,0,62,0,87,0,61,0,0,0,0,0,0,0,0,44,39,6,31,32,11,86,2,1,60,18,1,89,0,0,62,8,0,89,0,0,62,16,0,89,0,0,62,8,0,89,0,0,62,8,0,89,0,0,62,8,0,42,43,4,30,41,3,82,5,2,58,14,1,82,5,2,58,13,1,0,86,3,0,60,2,0,86,3,0,60,2,46,39,4,33,36,3,84,5,0,59,14,0,63,16,10,48,12,13
2017-06-23T23:59:55Z,63,90,71,54,88,62,67,50,7,13,0,0,0,0,0,0,0,90,0,63,0,88,0,62,0,0,0,0,0,0,0,0,45,38,7,32,33,12,88,2,0,61,18,0,89,1,0,62,9,0,90,0,0,63,16,0,90,0,0,63,9,0,89,1,0,62,9,0,89,1,0,62,9,0,44,43,3,30,42,2,82,6,2,58,15,1,82,6,2,58,14,1,0,86,4,0,61,3,0,87,3,0,61,2,46,40,4,33,37,3,84,6,0,59,14,0,64,16,10,49,13,13
2017-06-24T23:59:53Z,62,90,72,54,88,61,68,50,6,13,0,0,0,0,0,0,0,90,0,62,0,88,0,61,0,0,0,0,0,0,0,0,44,39,7,31,31,12,86,4,0,59,19,0,90,0,0,62,8,0,90,0,0,62,16,0,90,0,0,62,9,0,90,0,0,62,8,0,90,0,0,62,8,0,44,43,3,30,41,2,83,5,2,58,13,1,83,5,2,58,13,1,0,85,5,0,59,3,1,86,3,1,60,2,46,39,5,34,35,4,85,5,0,59,14,0,65,15,10,48,11,13
2017-06-25T23:59:56Z,62,91,73,54,89,61,69,50,9,14,0,0,0,0,0,0,0,91,0,62,0,89,0,61,0,0,0,0,0,0,0,0,46,37,8,33,31,12,89,1,1,61,17,1,91,0,0,62,8,0,91,0,0,62,16,0,91,0,0,62,8,0,91,0,0,62,8,0,91,0,0,62,9,0,44,42,5,30,40,3,84,5,2,58,13,1,84,5,2,58,13,1,1,85,5,1,59,3,0,86,5,0,59,3,46,39,6,33,35,4,86,5,0,59,14,0,65,16,10,48,11,13
2017-06-26T23:59:54Z,65,94,75,56,92,64,71,52,10,15,0,0,0,0,0,0,0,94,0,65,0,94,0,65,0,0,0,0,0,0,0,0,45,41,8,32,34,12,92,2,0,63,19,0,93,1,0,64,11,0,94,0,0,65,17,0,94,0,0,65,9,0,94,0,0,65,10,0,94,0,0,65,9,0,43,45,6,31,42,4,87,5,2,61,14,1,87,5,2,61,14,1,0,89,5,0,62,3,0,88,6,0,62,4,47,41,6,34,37,4,89,5,0,62,15,0,67,17,10,50,12,13
2017-06-27T23:59:55Z,66,95,75,57,93,65,70,53,12,16,0,0,0,0,0,0,0,95,0,66,0,93,0,65,0,0,0,0,0,0,0,0,49,38,8,36,34,12,91,3,1,64,20,1,95,0,0,66,9,0,95,0,0,66,18,0,95,0,0,66,10,0,95,0,0,66,10,0,95,0,0,66,9,0,45,44,6,32,43,4,90,3,2,63,13,1,90,3,2,63,13,1,0,90,5,0,63,3,0,90,5,0,63,3,48,41,6,35,37,4,90,5,0,63,14,0,68,17,10,51,13,13
2017-06-28T23:59:53Z,64,91,71,55,89,63,67,51,9,16,0,0,0,0,0,0,0,91,0,64,0,91,0,64,0,0,0,0,0,0,0,0,46,37,8,33,33,12,88,3,0,62,20,0,90,1,0,63,10,0,91,0,0,64,18,0,91,0,0,64,10,0,91,0,0,64,9,0,91,0,0,64,10,0,44,42,5,31,42,3,84,5,2,60,14,1,84,5,2,60,14,1,0,86,5,0,61,3,0,86,5,0,61,3,44,41,6,33,38,4,86,5,0,61,15,0,67,14,10,51,13,13
2017-06-29T23:59:56Z,65,94,74,56,92,64,69,52,7,14,0,0,0,0,0,0,0,94,0,65,0,94,0,65,0,0,0,0,0,0,0,0,48,38,8,35,34,13,93,1,0,64,20,0,94,0,0,65,9,0,94,0,0,65,19,0,94,0,0,65,9,0,94,0,0,65,10,0,94,0,0,65,9,0,44,44,6,31,44,4,85,7,2,60,16,1,85,7,2,60,15,1,0,87,7,0,61,4,0,88,6,0,62,4,47,41,6,34,37,4,87,7,0,61,15,0,67,17,10,50,13,14
2017-06-30T23:59:53Z,62,89,70,53,87,61,64,48,8,14,0,0,0,0,0,0,0,89,0,62,0,87,0,61,0,0,0,0,0,0,0,0,47,34,8,35,31,12,88,1,0,61,18,0,89,0,0,62,9,0,89,0,0,62,17,0,89,0,0,62,9,0,89,0,0,62,9,0,89,0,0,62,9,0,44,40,5,30,41,3,82,5,2,58,14,1,82,5,2,58,14,1,0,83,6,0,59,4,0,83,6,0,59,4,45,38,6,33,36,4,84,5,0,59,14,0,63,16,10,48,12,13
2017-07-01T23:59:54Z,63,91,72,54,89,62,68,50,10,16,0,0,0,0,0,0,0,91,0,63,0,91,0,63,0,0,0,0,0,0,0,0,46,37,8,34,32,12,90,1,0,62,18,0,91,0,0,63,9,0,91,0,0,63,17,0,91,0,0,63,9,0,91,0,0,63,9,0,91,0,0,63,9,0,42,43,6,30,42,4,84,5,2,59,14,1,84,5,2,59,14,1,0,86,5,0,60,3,0,84,7,0,59,4,45,40,6,33,37,4,86,5,0,60,14,0,64,17,10,48,13,13
2017-07-02T23:59:54Z,62,89,70,53,87,61,65,49,10,16,0,0,0,0,0,0,0,89,0,62,0,89,0,62,0,0,0,0,0,0,0,0,46,35,8,34,31,12,88,1,0,61,18,0,89,0,0,62,9,0,89,0,0,62,17,0,89,0,0,62,9,0,89,0,0,62,9,0,89,0,0,62,9,0,40,44,5,28,43,3,84,3,2,59,13,1,84,3,2,59,13,1,0,84,5,0,59,3,0,84,5,0,59,3,43,40,6,31,37,4,84,5,0,59,14,0,62,17,10,47,13,13
2017-07-03T23:59:59Z,66,95,75,57,93,65,70,53,12,17,0,0,0,0,0,0,0,95,0,66,0,93,0,65,0,0,0,0,0,0,0,0,46,41,8,34,35,13,94,1,0,65,20,0,95,0,0,66,9,0,95,0,0,66,19,0,95,0,0,66,9,0,95,0,0,66,9,0,95,0,0,66,10,0,43,45,7,29,46,4,88,5,2,62,15,1,88,5,2,62,14,1,0,90,5,0,63,3,1,89,5,1,63,3,47,42,6,33,39,4,90,5,0,63,15,0,67,18,10,51,13,13
2017-07-04T23:59:59Z,66,96,76,57,94,65,70,53,8,15,0,0,0,0,0,0,0,96,0,66,0,96,0,66,0,0,0,0,0,0,0,0,48,39,9,36,35,13,95,1,0,65,19,0,96,0,0,66,10,0,96,0,0,66,18,0,96,0,0,66,9,0,96,0,0,66,9,0,96,0,0,66,10,0,45,46,5,30,45,3,89,5,2,62,14,1,89,5,2,62,14,1,0,90,6,0,63,4,0,90,6,0,63,4,47,43,6,33,39,4,91,5,0,63,14,0,67,19,10,50,15,13
2017-07-05T23:59:59Z,67,97,77,58,94,66,71,53,8,14,0,0,0,0,0,0,0,97,0,67,0,97,0,67,0,0,0,0,0,0,0,0,47,41,9,35,36,13,96,1,0,66,19,0,97,0,0,67,9,0,97,0,0,67,18,0,97,0,0,67,9,0,97,0,0,67,9,0,97,0,0,67,9,0,43,47,7,30,45,4,89,6,2,62,15,1,89,6,2,62,15,1,1,91,5,1,64,3,1,91,5,1,64,3,47,44,6,34,39,4,92,5,0,64,14,0,68,19,10,51,15,13
2017-07-06T23:59:58Z,66,98,78,57,96,65,73,54,10,15,0,0,0,0,0,0,0,98,0,66,0,96,0,65,0,0,0,0,0,0,0,0,47,43,8,35,35,12,95,2,1,64,20,1,98,0,0,66,9,0,98,0,0,66,18,0,98,0,0,66,9,0,98,0,0,66,9,0,98,0,0,66,9,0,45,48,5,30,45,3,91,5,2,62,14,1,91,5,2,62,14,1,0,93,5,0,63,3,1,91,6,1,62,4,47,45,6,33,39,4,93,5,0,63,14,0,70,18,10,51,13,13
2017-07-07T23:59:59Z,67,100,80,58,98,66,75,55,9,17,0,0,0,0,0,0,0,100,0,67,0,98,0,66,0,0,0,0,0,0,0,0,50,42,8,36,36,12,99,1,0,67,19,0,100,0,0,67,9,0,100,0,0,67,18,0,100,0,0,67,9,0,100,0,0,67,9,0,100,0,0,67,9,0,46,49,5,31,45,3,91,7,2,63,14,1,91,7,2,63,14,1,1,94,5,1,64,3,1,94,5,1,64,3,48,46,6,34,39,4,93,7,0,64,14,0,71,19,10,51,15,13
2017-07-08T23:59:59Z,66,99,79,57,97,65,74,54,10,15,0,0,0,0,0,0,0,99,0,66,0,99,0,66,0,0,0,0,0,0,0,0,50,41,8,36,35,12,95,4,0,64,21,0,98,1,0,65,10,0,99,0,0,66,18,0,99,0,0,66,9,0,99,0,0,66,9,0,99,0,0,66,9,0,46,48,5,31,44,3,89,8,2,61,15,1,89,8,2,61,15,1,1,93,5,1,63,3,0,94,5,0,63,3,48,45,6,34,38,5,92,7,0,63,14,0,71,18,10,51,14,13
2017-07-09T23:59:59Z,65,96,75,56,93,64,68,51,9,14,0,0,0,0,0,0,1,95,1,65,0,93,0,64,0,0,0,0,0,0,0,0,48,39,9,35,34,13,94,2,0,64,19,0,95,1,0,64,9,0,96,0,0,65,17,1,95,0,1,64,8,1,95,0,1,64,8,1,95,0,1,64,8,1,40,49,7,28,44,5,88,5,3,61,12,2,88,6,2,61,13,1,0,90,6,0,62,4,0,90,6,0,62,4,42,46,7,31,38,5,87,7,1,61,13,1,68,18,10,50,13,12
2017-07-10T23:59:59Z,66,98,78,57,96,65,73,53,8,13,0,0,0,0,0,0,0,98,1,66,0,98,0,66,0,0,0,0,0,0,0,0,49,39,10,36,33,13,95,3,0,65,19,0,98,0,0,66,8,0,98,0,0,66,17,0,98,0,0,66,8,0,98,0,0,66,8,0,98,0,0,66,8,0,43,50,5,30,44,3,88,8,2,61,14,1,88,8,2,61,14,1,0,93,5,0,63,3,0,91,7,0,62,4,44,48,6,32,39,4,89,9,0,62,14,0,71,17,10,52,12,12
2017-07-11T23:59:59Z,65,97,77,56,95,64,72,52,12,15,0,0,0,0,0,0,1,96,1,65,0,97,0,65,0,0,0,0,0,0,0,0,49,38,10,36,32,14,96,1,0,65,17,0,97,0,0,65,7,0,97,0,0,65,16,0,97,0,0,65,7,0,97,0,0,65,7,0,97,0,0,65,7,0,42,49,6,29,43,4,88,7,2,61,12,1,88,7,2,61,12,1,0,91,6,0,62,4,0,89,8,0,61,5,44,46,7,32,37,5,88,9,0,61,13,0,69,18,10,50,14,12
2017-07-12T23:59:57Z,63,94,74,54,92,62,70,51,9,14,0,0,0,0,0,0,1,93,1,63,0,92,0,62,0,0,0,0,0,0,0,0,47,38,9,34,32,13,92,2,0,62,18,0,94,0,0,63,7,0,94,0,0,63,16,1,94,0,0,63,7,0,94,0,0,63,7,0,94,0,0,63,7,0,41,47,6,29,41,5,84,8,2,58,13,1,84,8,2,58,13,1,0,88,6,0,60,5,0,88,6,0,60,4,42,45,7,31,36,5,86,8,0,59,13,0,67,17,10,49,12,12
2017-07-13T23:59:59Z,68,101,80,59,99,67,75,55,8,15,0,0,0,0,0,0,1,100,1,68,0,97,0,66,0,0,0,0,0,0,0,0,50,42,9,36,35,15,98,3,0,67,20,0,101,0,0,68,7,0,101,0,0,68,17,1,101,0,0,68,7,0,100,1,0,67,8,0,100,1,0,67,8,0,44,51,6,31,45,4,91,8,2,63,13,1,93,6,2,64,12,1,0,95,6,0,65,4,0,95,6,1,65,4,47,47,7,35,37,5,94,7,0,65,12,0,72,18,11,53,13,13
2017-07-14T23:59:59Z,65,98,77,56,96,64,72,52,7,14,0,0,0,0,0,0,1,97,1,65,0,96,0,64,0,0,0,0,0,0,0,0,49,38,11,35,32,15,96,2,0,65,19,0,98,0,0,65,7,0,98,0,0,65,17,0,98,0,0,65,7,0,98,0,0,65,7,0,98,0,0,65,7,0,44,48,6,30,43,4,89,7,2,61,12,1,89,7,2,61,12,1,0,92,6,0,62,4,0,92,6,0,62,4,45,45,8,33,36,6,91,7,0,62,12,0,69,18,11,50,13,13
2017-07-15T23:59:59Z,67,100,79,58,98,66,74,54,10,15,0,0,0,0,0,0,1,99,1,67,0,98,0,66,0,0,0,0,0,0,0,0,49,42,9,35,34,14,99,1,0,67,18,0,100,0,0,67,7,0,100,0,0,67,17,0,100,0,0,67,7,0,100,0,0,67,7,0,100,0,0,67,7,0,43,49,8,30,44,5,91,7,2,63,12,1,91,7,2,63,12,1,0,94,6,0,64,4,0,94,6,0,64,4,47,46,7,34,37,5,93,7,0,64,12,0,71,18,11,52,13,13
2017-07-16T23:59:58Z,68,101,80,59,99,67,75,55,8,15,0,0,0,0,0,0,1,100,1,68,0,99,0,67,0,0,0,0,0,0,0,0,50,42,9,36,35,14,98,3,0,67,19,0,101,0,0,68,7,0,101,0,0,68,17,0,101,0,0,68,7,0,101,0,0,68,7,0,101,0,0,68,7,0,44,51,6,31,45,4,93,6,2,64,12,1,93,6,2,64,12,1,0,95,6,0,65,4,0,95,6,0,65,4,46,47,8,34,38,6,94,7,0,65,12,0,73,17,11,54,12,13
2017-07-17T23:59:58Z,66,99,79,58,97,65,73,54,8,15,0,0,0,0,0,0,1,98,1,66,0,97,0,65,0,0,0,0,0,0,0,0,49,41,9,36,34,14,98,1,0,66,18,0,99,0,0,66,7,0,99,0,0,66,17,1,99,0,0,66,7,0,99,0,0,66,7,0,99,0,0,66,7,0,40,53,6,28,46,4,90,7,2,62,12,1,90,7,2,62,12,1,0,92,7,0,62,5,0,93,6,0,63,4,42,49,8,31,38,6,91,8,0,62,13,0,71,17,11,52,13,13
2017-07-18T23:59:59Z,67,101,81,59,98,66,77,56,8,15,0,0,0,0,0,0,1,100,1,67,0,101,0,67,0,0,0,0,0,0,0,0,49,41,11,35,34,15,99,2,0,66,19,0,100,1,0,66,8,0,101,0,0,67,17,0,101,0,0,67,7,0,101,0,0,67,7,0,101,0,0,67,7,0,44,49,8,30,44,5,93,6,2,63,12,1,93,6,2,63,12,1,2,93,6,1,63,4,0,95,6,0,64,4,48,46,7,34,37,5,96,5,0,65,11,0,72,18,11,52,13,13
2017-07-19T23:59:59Z,68,102,82,60,100,67,78,57,8,13,0,0,0,0,0,0,0,102,1,68,0,102,0,68,0,0,0,0,0,0,0,0,48,46,8,34,37,13,97,5,0,65,22,0,98,4,0,65,11,0,102,0,0,68,18,0,101,1,0,67,9,0,100,2,0,67,9,0,99,3,0,66,10,0,47,50,5,31,46,3,91,9,2,62,15,1,89,11,2,61,16,1,0,96,6,0,65,4,1,96,5,1,65,3,46,50,6,33,41,4,96,6,0,65,13,0,71,20,11,52,14,13
2017-07-20T23:59:59Z,65,98,78,57,96,64,74,54,7,13,0,0,0,0,0,0,1,97,1,65,0,96,0,64,0,0,0,0,0,0,0,0,49,40,9,35,33,14,96,2,0,64,19,0,97,1,0,64,8,0,98,0,0,65,17,0,98,0,0,65,7,0,97,1,0,64,8,0,97,1,0,64,8,0,43,49,6,29,44,4,88,8,2,60,13,1,88,8,2,60,13,1,0,92,6,0,62,4,0,92,6,0,62,4,45,46,7,32,37,6,89,9,0,61,13,0,70,17,11,51,12,13
2017-07-21T23:59:59Z,66,100,81,58,98,65,77,55,8,14,0,0,0,0,0,0,1,99,1,66,0,100,0,66,0,0,0,0,0,0,0,0,47,44,9,33,34,14,96,4,0,64,19,0,99,1,0,65,8,0,100,0,0,66,16,0,100,0,0,66,7,0,99,1,0,65,8,0,99,1,0,65,8,0,45,49,6,30,43,4,89,9,2,60,14,1,89,9,2,60,15,1,0,94,6,0,63,4,0,93,7,0,63,5,45,48,7,32,38,5,91,9,0,61,14,0,72,17,11,52,12,13
2017-07-22T23:59:58Z,65,99,80,57,96,63,75,53,7,13,0,0,0,0,0,0,0,99,1,65,0,96,0,63,0,0,0,0,0,0,0,0,48,41,10,34,33,14,95,4,0,63,20,0,98,1,0,64,9,0,99,0,0,65,17,0,99,0,0,65,8,0,99,0,0,65,8,0,99,0,0,65,8,0,42,51,6,28,45,4,90,7,2,61,14,1,90,7,2,61,13,1,1,93,5,1,62,3,0,94,5,0,62,3,46,47,6,32,38,4,92,7,0,62,14,0,71,17,11,51,11,13
2017-07-23T23:59:59Z,64,96,77,56,94,63,73,53,9,14,0,0,0,0,0,0,0,96,1,64,0,94,0,63,0,0,0,0,0,0,0,0,47,41,8,33,33,13,92,3,1,62,19,1,95,1,0,63,9,0,96,0,0,64,17,1,96,0,0,64,9,0,96,0,0,64,8,0,95,1,0,63,10,0,42,49,5,28,44,3,86,8,2,59,14,1,86,8,2,59,15,1,0,91,5,1,61,3,0,91,5,0,61,3,44,46,6,31,38,4,89,7,0,61,13,0,67,18,11,49,12,13
2017-07-24T23:59:59Z,65,98,79,57,96,64,75,54,10,15,0,0,0,0,0,0,0,98,1,65,0,96,0,64,0,0,0,0,0,0,0,0,47,43,8,33,34,13,96,2,0,64,19,0,95,3,0,63,11,0,98,0,0,65,17,0,98,0,0,65,9,0,96,2,0,64,10,0,97,1,0,65,9,0,42,51,5,28,45,3,88,8,2,60,14,1,88,8,2,60,14,1,0,93,5,0,62,3,0,93,5,0,62,3,46,46,6,31,38,4,91,7,0,62,13,0,69,18,11,50,12,13
2017-07-25T23:59:59Z,64,97,79,56,95,63,75,53,12,16,0,0,0,0,0,0,1,96,1,64,0,97,0,64,0,0,0,0,0,0,0,0,46,41,10,32,31,15,93,4,0,62,18,0,95,2,0,63,8,0,97,0,0,64,15,0,97,0,0,64,8,0,96,1,0,63,8,0,96,1,0,63,8,0,44,47,6,29,42,4,86,9,2,59,13,1,86,9,2,59,13,1,0,91,6,0,61,4,0,91,6,0,61,4,44,46,7,31,37,5,91,6,0,62,12,0,66,20,11,48,14,13
2017-07-26T23:59:59Z,62,95,77,54,92,61,73,51,6,12,0,0,0,0,0,0,0,95,1,62,0,95,0,62,0,0,0,0,0,0,0,0,47,40,8,33,31,13,93,2,0,62,17,0,95,0,0,62,8,0,95,0,0,62,16,0,95,0,0,62,8,0,95,0,0,62,8,0,95,0,0,62,9,0,41,49,5,27,43,3,87,6,2,59,13,1,87,6,2,59,13,1,0,90,5,0,59,3,0,90,5,0,59,3,43,46,6,30,37,4,91,4,0,61,12,0,67,17,11,48,11,13
2017-07-27T23:59:59Z,64,96,78,56,94,63,74,53,9,14,0,0,0,0,0,0,0,96,1,64,0,94,0,63,0,0,0,0,0,0,0,0,48,40,8,34,32,13,95,1,0,64,17,0,96,0,0,64,8,0,96,0,0,64,16,0,96,0,0,64,9,0,96,0,0,64,8,0,96,0,0,64,8,0,39,52,5,26,46,3,87,7,2,60,14,1,87,7,2,60,14,1,0,91,5,0,61,3,0,91,5,0,61,3,42,48,6,30,39,4,90,6,0,62,13,0,68,17,11,50,11,13
2017-07-28T23:59:58Z,66,101,83,58,98,65,79,55,10,15,0,0,0,0,0,0,1,100,1,66,0,99,0,65,0,0,0,0,0,0,0,0,52,40,9,37,31,14,99,2,0,66,17,0,100,1,0,65,8,0,101,0,0,66,15,0,101,0,0,66,7,0,101,0,0,66,7,0,101,0,0,66,7,0,41,54,6,28,45,4,92,7,2,62,12,1,93,6,2,63,12,1,0,95,6,0,63,4,0,95,6,0,63,4,44,50,7,31,39,5,92,9,0,62,13,0,73,17,11,52,11,13
2017-07-29T23:59:59Z,63,95,78,56,93,62,74,53,7,13,0,0,0,0,0,0,0,95,1,63,0,95,0,63,0,0,0,0,0,0,0,0,48,41,6,34,31,12,92,3,0,62,17,0,95,0,0,63,8,0,95,0,0,63,15,0,95,0,0,63,7,0,93,2,0,62,9,0,93,2,0,62,8,0,41,51,3,27,44,2,86,7,2,59,12,1,86,7,2,59,12,1,0,92,3,0,61,2,0,92,3,0,61,2,41,50,4,29,39,3,89,6,0,61,11,0,67,17,11,49,12,13
2017-07-30T23:59:58Z,62,94,77,55,91,61,72,52,8,14,0,0,0,0,0,0,0,94,1,62,0,90,0,60,0,0,0,0,0,0,0,0,48,39,7,34,31,13,91,3,0,61,17,0,94,0,0,62,7,0,94,0,0,62,15,0,94,0,0,62,7,0,94,0,0,62,7,0,94,0,0,62,8,0,40,51,3,26,44,2,86,6,2,59,11,1,86,6,2,59,11,1,0,89,5,0,59,3,0,90,4,0,60,3,40,50,4,28,39,3,88,6,0,60,12,0,68,15,11,49,10,13
2017-07-31T23:59:57Z,62,94,77,55,92,61,72,51,7,13,0,0,0,0,0,0,1,93,1,62,0,92,0,61,0,0,0,0,0,0,0,0,49,38,7,35,29,13,93,1,0,62,15,0,94,0,0,62,7,0,94,0,0,62,14,0,94,0,0,62,6,0,94,0,0,62,6,0,94,0,0,62,6,0,38,52,4,26,43,3,86,6,2,59,10,1,86,6,2,59,10,1,0,90,4,0,60,3,0,90,4,0,60,3,40,49,5,29,37,4,88,6,0,60,10,0,68,15,11,49,10,13
2017-08-01T23:59:58Z,61,94,77,54,92,60,73,51,7,13,0,0,0,0,0,0,1,93,1,61,0,94,0,61,0,0,0,0,0,0,0,0,48,38,7,34,29,13,89,4,0,60,16,0,93,0,0,61,6,0,94,0,0,61,14,0,94,0,0,61,7,0,94,0,0,61,6,0,94,0,0,61,6,0,40,50,4,26,42,3,85,6,2,58,10,1,85,6,2,58,10,1,2,88,4,1,58,3,0,90,4,0,59,3,40,49,5,28,37,4,87,6,0,59,11,0,67,16,11,47,12,13
2017-08-02T23:59:59Z,63,94,77,56,92,62,73,53,4,11,0,0,0,0,0,0,0,94,1,63,0,90,0,61,0,0,0,0,0,0,0,0,48,39,6,34,31,12,90,2,1,61,17,1,92,1,0,62,8,0,94,0,0,63,16,0,94,0,0,63,8,0,93,1,0,62,8,0,93,1,0,62,8,0,39,52,3,26,45,2,84,7,2,59,12,1,84,7,2,59,13,1,1,90,3,1,60,2,0,91,3,0,61,2,41,49,4,29,39,3,87,6,0,61,11,0,68,15,11,50,11,13
2017-08-03T23:59:59Z,64,96,79,57,94,63,75,54,5,12,0,0,0,0,0,0,0,96,1,64,0,96,0,64,0,0,0,0,0,0,0,0,48,41,6,34,33,12,93,2,0,63,17,0,94,1,0,63,9,0,96,0,0,64,15,0,96,0,0,64,8,0,94,2,0,62,10,0,94,2,0,62,9,0,39,54,3,26,46,2,87,6,2,60,12,1,87,6,2,60,13,1,0,92,4,0,62,3,0,92,4,0,62,3,41,51,4,29,40,3,91,4,0,63,10,0,70,15,11,51,10,13
2017-08-04T23:59:58Z,63,97,80,56,95,62,76,53,8,14,0,0,0,0,0,0,1,96,1,63,0,95,0,62,0,0,0,0,0,0,0,0,47,42,7,33,31,13,93,3,0,62,16,0,96,0,0,63,6,0,97,0,0,63,14,0,97,0,0,63,6,0,96,1,0,62,7,0,96,1,0,62,8,0,39,53,5,26,44,4,87,7,2,59,12,1,87,7,2,59,12,1,0,93,4,0,61,3,0,91,6,0,60,4,41,51,5,29,38,4,89,7,0,60,11,0,70,16,11,49,12,13
2017-08-05T23:59:59Z,62,94,77,55,92,61,73,52,5,12,0,0,0,0,0,0,1,93,1,62,0,94,0,62,0,0,0,0,0,0,0,0,47,39,7,33,30,13,89,4,0,60,17,0,92,1,0,61,8,0,94,0,0,62,14,0,94,0,0,62,6,0,93,1,0,61,8,0,93,1,0,61,8,0,41,49,4,27,42,3,84,7,2,58,11,1,84,7,2,58,12,1,0,90,4,0,60,3,0,88,6,0,59,4,41,48,5,29,37,4,87,6,0,60,11,0,68,15,11,49,10,13
2017-08-06T23:59:59Z,63,96,80,57,94,62,76,54,5,12,0,0,0,0,0,0,2,94,2,62,0,96,0,63,0,0,0,0,0,0,0,0,47,41,7,33,31,13,94,1,0,63,15,0,95,0,0,63,6,0,96,0,0,63,14,0,96,0,0,63,7,0,95,1,0,63,8,0,94,2,0,62,7,0,41,51,4,27,43,3,84,9,2,58,13,1,86,7,2,59,11,1,0,92,4,0,61,3,0,92,4,0,61,3,43,48,5,30,37,4,91,4,0,62,9,0,69,16,11,50,10,13
2017-08-07T23:59:58Z,65,98,81,58,95,64,77,55,6,13,0,0,0,0,0,0,2,96,2,64,0,94,0,63,0,0,0,0,0,0,0,0,47,42,8,33,32,14,94,3,0,63,17,0,96,1,0,64,7,0,98,0,0,65,15,0,98,0,0,65,6,0,97,1,0,64,8,0,97,1,0,64,7,0,39,55,4,26,46,3,88,7,2,61,11,1,88,7,2,61,11,1,0,93,5,0,62,4,1,93,4,1,63,3,41,52,5,29,40,4,90,7,0,62,12,0,72,15,11,52,11,13
2017-08-08T23:59:58Z,65,99,82,58,97,64,78,55,7,13,0,0,0,0,0,0,2,97,2,64,0,99,0,65,0,0,0,0,0,0,0,0,47,44,7,33,33,13,94,4,0,63,17,0,97,1,0,64,7,0,99,0,0,65,14,0,98,1,0,64,7,0,99,0,0,65,6,0,97,2,0,64,7,0,40,55,4,26,46,3,86,10,2,59,13,1,86,10,2,59,13,1,0,95,4,0,63,3,0,95,4,0,63,3,42,52,5,29,40,4,91,7,0,62,11,0,71,17,11,51,11,13
2017-08-09T23:59:59Z,61,92,75,54,90,60,71,51,7,13,0,0,0,0,0,0,2,90,2,60,0,92,0,61,0,0,0,0,0,0,0,0,48,37,7,33,28,13,90,1,0,61,14,0,91,0,0,61,5,0,92,0,0,61,13,0,92,0,0,61,6,0,91,1,0,60,6,0,92,0,0,61,5,0,38,50,4,25,42,3,82,7,2,57,10,1,82,7,2,57,10,1,0,88,4,0,59,3,0,88,4,0,59,3,40,47,5,28,36,4,86,5,0,59,9,0,65,16,11,47,11,13
2017-08-10T23:59:58Z,64,99,82,57,97,63,78,54,6,13,0,0,0,0,0,0,2,97,2,63,0,99,0,64,0,0,0,0,0,0,0,0,48,44,7,33,31,14,94,4,0,62,17,0,98,0,0,64,5,0,99,0,0,64,14,0,99,0,0,64,5,0,99,0,0,64,5,0,97,2,0,63,7,0,40,55,4,26,44,3,88,8,2,60,11,1,88,8,2,60,11,1,0,95,4,0,62,3,0,95,4,0,62,3,40,54,5,29,39,4,91,7,0,61,10,0,70,18,11,49,12,14
2017-08-11T23:59:58Z,61,93,76,54,91,60,72,51,7,13,0,0,0,0,0,0,2,91,2,60,0,91,0,60,0,0,0,0,0,0,0,0,47,39,7,32,29,13,90,2,0,60,15,0,91,1,0,60,6,0,93,0,0,61,13,0,93,0,0,61,6,0,93,0,0,61,5,0,93,0,0,61,5,0,38,51,4,25,42,3,83,7,2,57,10,1,85,5,2,58,9,1,0,89,4,0,59,3,0,89,4,0,59,3,40,48,5,28,36,4,88,4,0,60,8,0,67,15,11,48,10,13
2017-08-12T23:59:59Z,63,97,80,56,95,62,75,52,8,14,0,0,0,0,0,0,2,95,2,62,0,95,0,62,0,0,0,0,0,0,0,0,49,41,7,34,30,13,93,3,0,62,16,0,95,1,0,62,6,0,97,0,0,63,13,0,96,1,0,62,6,0,97,0,0,63,5,0,96,1,0,62,6,0,37,56,4,24,45,3,87,7,2,59,10,1,87,7,2,59,11,1,0,92,5,0,61,4,0,93,4,0,61,3,39,53,5,27,39,4,89,7,0,60,10,0,71,15,11,50,10,13
2017-08-13T23:59:59Z,65,98,81,58,96,64,78,55,9,15,0,0,0,0,0,0,2,96,2,64,0,96,0,64,0,0,0,0,0,0,0,0,51,40,7,35,30,14,92,5,0,62,17,1,96,1,0,64,6,1,98,0,0,65,13,1,97,1,0,64,6,1,96,2,0,63,8,1,96,2,0,63,7,1,38,55,5,25,46,5,87,8,2,60,12,2,88,7,2,61,10,2,0,92,6,0,62,5,0,94,4,0,63,4,41,52,5,28,40,5,90,7,0,62,10,1,72,15,11,52,11,13
2017-08-14T23:59:59Z,64,96,79,57,94,63,76,54,7,13,0,0,0,0,0,0,2,94,2,63,0,96,0,64,0,0,0,0,0,0,0,0,49,39,8,34,30,15,92,1,2,63,16,2,95,0,0,64,6,1,96,0,0,64,15,1,96,0,0,64,7,1,95,1,0,63,8,1,95,1,0,63,7,1,40,52,4,27,45,4,86,7,2,60,11,2,86,7,2,60,11,2,0,90,6,0,61,5,0,92,4,0,62,4,40,51,5,29,39,5,89,6,0,62,10,1,69,16,11,50,12,14
2017-08-15T23:59:59Z,63,94,77,56,91,62,71,53,10,16,0,0,0,0,0,0,2,92,2,62,0,94,0,63,0,0,0,0,0,0,0,0,48,38,8,33,30,16,92,1,0,63,17,1,93,0,0,63,6,1,94,0,0,63,16,1,94,0,0,63,6,1,94,0,0,63,6,1,94,0,0,63,6,1,39,51,4,27,44,4,84,7,2,59,11,2,84,7,2,59,11,2,1,89,4,1,61,4,0,90,4,0,61,4,41,48,5,30,38,5,86,7,0,60,11,1,68,15,11,50,10,14
2017-08-16T23:59:59Z,63,93,76,56,91,62,70,52,9,15,0,0,0,0,0,0,2,91,2,61,0,93,0,63,0,0,0,0,0,0,0,0,50,36,7,34,29,15,89,3,0,62,17,1,92,0,0,63,7,1,93,0,0,63,16,1,93,0,0,63,8,1,93,0,0,63,7,1,93,0,0,63,8,1,38,51,4,25,45,4,84,6,2,60,11,2,84,6,2,60,12,2,0,89,4,0,60,4,0,89,4,0,60,4,39,49,5,28,39,5,86,6,0,61,11,1,66,16,11,49,11,14
2017-08-17T23:59:59Z,66,97,79,58,93,64,71,53,8,15,0,0,0,0,0,0,2,95,2,64,0,97,0,66,0,0,0,0,0,0,0,0,48,42,7,33,33,15,93,3,0,64,18,1,95,1,0,65,7,1,97,0,0,66,15,2,97,0,0,66,7,1,97,0,0,66,7,1,97,0,0,66,7,1,38,55,4,26,47,4,87,7,2,62,11,2,87,7,2,62,11,2,0,93,4,0,63,4,0,93,4,1,63,4,39,53,5,28,41,5,90,6,0,64,11,1,70,16,11,52,12,14
2017-08-18T23:59:59Z,64,93,75,56,90,62,68,51,9,15,0,0,0,0,0,0,2,91,2,62,0,93,0,64,0,0,0,0,0,0,0,0,47,38,8,32,31,15,90,2,0,63,17,1,91,1,0,63,8,1,93,0,0,64,15,1,93,0,0,64,7,1,91,2,0,62,8,1,91,2,0,62,8,1,36,53,4,25,46,4,83,7,2,60,11,2,83,7,2,60,11,2,0,89,4,0,61,4,0,89,4,0,61,4,37,51,5,27,40,5,85,7,0,61,11,1,66,16,11,50,12,14
2017-08-19T23:59:59Z,66,98,80,58,95,64,74,54,10,15,0,0,0,0,0,0,4,94,3,63,0,97,0,66,0,0,0,0,0,0,0,0,52,39,7,35,32,15,94,3,0,65,18,1,97,0,0,66,7,1,98,0,0,66,16,1,98,0,0,66,7,1,98,0,0,66,7,1,98,0,0,66,7,1,37,57,4,25,48,4,89,6,2,63,11,2,91,4,2,64,11,2,0,94,4,0,63,4,0,93,5,0,63,5,39,54,5,28,41,5,92,5,0,64,11,1,70,15,13,52,12,15
2017-08-20T23:59:59Z,65,96,78,57,92,63,72,53,9,15,0,0,0,0,0,0,4,92,3,62,0,96,0,65,0,0,0,0,0,0,0,0,50,39,7,34,32,15,92,3,0,63,18,1,93,2,0,63,8,1,96,0,0,65,15,1,95,1,0,64,8,1,95,1,0,64,7,1,96,0,0,65,7,1,35,57,4,24,48,4,86,7,2,61,11,2,87,6,2,62,11,2,0,92,4,0,62,4,0,92,4,0,62,4,37,54,5,27,41,5,89,6,0,63,10,1,68,15,13,51,11,15
2017-08-21T23:59:58Z,65,97,79,57,94,63,73,53,8,14,0,0,0,0,0,0,4,93,3,62,0,97,0,65,0,0,0,0,0,0,0,0,47,43,7,32,32,16,92,4,0,63,18,2,96,0,0,65,6,2,97,0,0,65,15,2,97,0,0,65,7,2,97,0,0,65,7,2,97,0,0,65,6,2,35,58,4,24,48,5,88,6,2,62,10,3,88,6,2,62,11,3,2,91,4,1,61,5,1,92,4,1,62,5,35,57,5,26,43,6,90,6,0,63,9,2,69,16,12,50,12,15
2017-08-22T23:59:59Z,68,98,79,60,95,66,73,56,7,14,0,0,0,0,0,0,4,94,3,65,0,95,0,67,0,0,0,0,0,0,0,0,51,40,7,36,34,16,94,3,0,66,20,2,96,1,0,67,8,2,98,0,0,68,17,3,98,0,0,68,7,2,97,1,0,67,8,2,97,1,0,67,8,2,35,59,4,26,51,5,87,8,2,63,14,3,87,8,2,63,13,3,1,93,4,1,64,5,0,94,4,0,65,5,37,56,5,28,43,6,91,6,0,66,10,2,71,15,12,54,13,15
2017-08-23T23:59:59Z,65,96,77,57,94,64,71,53,6,14,0,0,0,0,0,0,4,92,3,62,0,94,0,64,0,0,0,0,0,0,0,0,51,38,7,36,33,16,94,1,0,65,19,2,95,0,0,65,8,2,96,0,0,65,18,2,96,0,0,65,9,2,96,0,0,65,8,2,96,0,0,65,8,2,33,59,4,23,50,5,87,6,2,62,14,3,87,6,2,62,13,3,0,92,4,0,62,5,0,92,4,0,62,5,35,56,5,26,42,6,89,6,0,63,12,2,67,17,12,49,14,15
2017-08-24T23:59:58Z,71,103,83,63,99,69,77,59,9,17,0,0,0,0,0,0,7,96,5,67,0,102,0,71,0,0,0,0,0,0,0,0,50,46,7,35,38,17,97,3,2,68,22,4,100,2,0,69,10,3,103,0,0,71,19,3,102,1,0,70,9,3,102,1,0,70,10,3,102,1,0,70,9,3,35,63,5,25,54,7,90,10,2,64,17,4,91,9,2,65,16,4,0,97,6,0,67,7,2,97,4,1,67,6,38,60,5,28,46,7,94,8,0,67,13,2,74,17,12,55,16,15
2017-08-25T23:59:59Z,69,100,79,60,98,68,72,55,9,15,0,0,0,0,0,0,4,96,3,66,0,98,0,68,0,0,0,0,0,0,0,0,51,41,8,36,36,17,98,1,0,69,22,2,99,0,0,69,11,2,100,0,0,69,21,2,100,0,0,69,11,2,99,1,0,68,11,2,100,0,0,69,11,2,36,60,4,26,53,5,89,8,2,64,17,3,89,8,2,64,16,3,0,96,4,0,66,5,0,96,4,0,66,5,37,58,5,28,46,6,92,7,0,66,14,2,70,17,13,53,14,16